User: anonymous   Login
Location: Oregon Trail
(41.1872°N, 102.0741°W)
Time: 02:37:06
(UTC+00:00)
Language:

ATLAS CENTAUR R/B - Orbit

View from above orbital plane
View from above orbital plane
View from above satellite
View from above satellite

Ground track
Ground track

The orbit data is extracted from the following two-line orbital elements,

1 38770U 12048N   20015.75892441 0.00000500  00000-0  31163-4 0    04
2 38770  64.6407 286.2120 0172639 190.0298 169.9702 14.97668003    00
Epoch (UTC): 15 January 2020 18:12:51
Eccentricity: 0.0172639
inclination: 64.6407°
perigee height: 454 km
apogee height: 694 km
right ascension of ascending node: 286.2120°
argument of perigee: 190.0298°
revolutions per day: 14.97668003
mean anomaly at epoch: 169.9702°
orbit number at epoch: 0

The dashed part of the orbit path shows where the satellite is in the earth's shadow,  

DLR